FW5262 Weather Reports


time (UTC)temp
C
wind
direction
speed
KPH
gust
KPH
rain 1hr
cm
rain 24hr
cm
rain mn
cm
humidity
%
barometer
mb
20260906225338 36 117 8.0 16.1 0.00 0.00 0.00 37 941.8
20260906224836 36 73 8.0 19.3 0.00 0.00 0.00 37 941.8
20260906224337 36 148 8.0 19.3 0.00 0.00 0.00 37 941.7
20260906223837 36 163 8.0 19.3 0.00 0.00 0.00 38 941.8
20260906222837 36 161 11.3 22.5 0.00 0.00 0.00 37 942.0
20260906221337 37 123 3.2 20.9 0.00 0.00 0.00 36 942.1
20260906220836 36 166 3.2 12.9 0.00 0.00 0.00 40 942.0
20260906220337 36 117 6.4 16.1 0.00 0.00 0.00 38 942.1
20260906220054 35 160 8.0 17.7 0.00 0.00 0.00 39 942.2
20260906215333 35 141 8.0 17.7 0.00 0.00 0.00 39 942.2
20260906214330 35 76 12.9 20.9 0.00 0.00 0.00 40 942.3
20260906213830 35 109 12.9 24.1 0.00 0.00 0.00 40 942.3
20260906213331 35 82 11.3 29.0 0.00 0.00 0.00 39 942.3
20260906212831 35 121 8.0 29.0 0.00 0.00 0.00 39 942.4
20260906212331 35 101 6.4 17.7 0.00 0.00 0.00 38 942.5
20260906211830 36 180 6.4 16.1 0.00 0.00 0.00 37 942.5
20260906211600 36 184 8.0 16.1 0.00 0.00 0.00 37 942.5
20260906211047 35 157 8.0 16.1 0.00 0.00 0.00 40 942.6
20260906210326 35 157 9.7 16.1 0.00 0.00 0.00 39 942.7
20260906205826 35 63 9.7 16.1 0.00 0.00 0.00 40 942.8
20260906205327 35 49 6.4 16.1 0.00 0.00 0.00 40 942.9
20260906204827 35 114 6.4 14.5 0.00 0.00 0.00 39 942.9
20260906204326 35 100 8.0 22.5 0.00 0.00 0.00 39 943.0
20260906203826 35 123 8.0 22.5 0.00 0.00 0.00 39 943.0
20260906203327 35 355 6.4 17.7 0.00 0.00 0.00 38 942.9
20260906202826 35 102 8.0 17.7 0.00 0.00 0.00 38 943.0
20260906202536 36 87 6.4 17.7 0.00 0.00 0.00 38 943.1
20260906201814 36 169 6.4 19.3 0.00 0.00 0.00 37 943.1
20260906201308 36 205 9.7 19.3 0.00 0.00 0.00 38 943.1
20260906200801 36 155 8.0 19.3 0.00 0.00 0.00 37 943.1
20260906200255 36 172 8.0 19.3 0.00 0.00 0.00 41 943.2
20260906195749 35 151 11.3 20.9 0.00 0.00 0.00 40 943.4
20260906195243 35 110 9.7 20.9 0.00 0.00 0.00 40 943.5
20260906195009 35 199 9.7 17.7 0.00 0.00 0.00 40 943.5
20260906194232 35 124 12.9 20.9 0.00 0.00 0.00 39 943.6
20260906193726 36 92 8.0 20.9 0.00 0.00 0.00 40 943.6
20260906193220 36 75 6.4 17.7 0.00 0.00 0.00 40 943.6
20260906192714 36 117 8.0 19.3 0.00 0.00 0.00 40 943.8
20260906192208 36 93 8.0 19.3 0.00 0.00 0.00 41 943.8
20260906191702 35 147 8.0 19.3 0.00 0.00 0.00 40 943.9
20260906191156 35 16 11.3 20.9 0.00 0.00 0.00 42 944.0
20260906190650 35 113 14.5 22.5 0.00 0.00 0.00 41 944.1
20260906190143 35 85 11.3 22.5 0.00 0.00 0.00 41 944.0
20260906185903 36 80 9.7 25.7 0.00 0.00 0.00 40 944.0
20260906185132 35 145 9.7 25.7 0.00 0.00 0.00 40 944.1
20260906184626 35 168 8.0 19.3 0.00 0.00 0.00 41 944.2
20260906184120 35 123 8.0 19.3 0.00 0.00 0.00 43 944.3
20260906183614 35 190 6.4 19.3 0.00 0.00 0.00 41 944.4
20260906183108 35 148 4.8 12.9 0.00 0.00 0.00 43 944.5
20260906182602 35 195 8.0 20.9 0.00 0.00 0.00 45 944.5
20260906182055 35 111 9.7 20.9 0.00 0.00 0.00 47 944.6
20260906181549 34 98 8.0 20.9 0.00 0.00 0.00 43 944.7
20260906181043 35 34 6.4 14.5 0.00 0.00 0.00 42 944.7
20260906180537 34 53 4.8 12.9 0.00 0.00 0.00 44 944.8
20260906180031 33 10 6.4 14.5 0.00 0.00 0.00 45 945.0
20260906175526 33 90 9.7 17.7 0.00 0.00 0.00 46 945.1
20260906175020 34 76 9.7 17.7 0.00 0.00 0.00 44 945.2
20260906174514 35 70 9.7 19.3 0.00 0.00 0.00 44 945.3
20260906174007 35 78 11.3 19.3 0.00 0.00 0.00 42 945.4
20260906173502 35 58 6.4 19.3 0.00 0.00 0.00 48 945.5
20260906172955 35 5 6.4 14.5 0.00 0.00 0.00 46 945.5
20260906172449 34 130 9.7 19.3 0.00 0.00 0.00 44 945.5
20260906171944 34 86 9.7 19.3 0.00 0.00 0.00 45 945.6
20260906171438 34 29 9.7 16.1 0.00 0.00 0.00 46 945.6
20260906170932 34 88 11.3 22.5 0.00 0.00 0.00 45 945.7
20260906170426 34 113 9.7 22.5 0.00 0.00 0.00 46 945.6
20260906165920 33 111 8.0 24.1 0.00 0.00 0.00 47 945.7
20260906165414 34 136 9.7 24.1 0.00 0.00 0.00 47 945.7
20260906164908 33 117 12.9 25.7 0.00 0.00 0.00 44 945.8
20260906164401 33 143 12.9 25.7 0.00 0.00 0.00 46 945.9
20260906163855 33 105 12.9 22.5 0.00 0.00 0.00 47 945.9
20260906163349 33 79 11.3 22.5 0.00 0.00 0.00 46 945.9
20260906162844 33 36 6.4 16.1 0.00 0.00 0.00 46 945.8
20260906162338 33 325 6.4 16.1 0.00 0.00 0.00 46 945.9
20260906161832 33 128 4.8 16.1 0.00 0.00 0.00 47 945.9
20260906161326 33 79 4.8 12.9 0.00 0.00 0.00 46 945.9
20260906160820 33 42 6.4 12.9 0.00 0.00 0.00 50 945.9
20260906160314 33 93 4.8 11.3 0.00 0.00 0.00 48 945.9
20260906155807 33 149 3.2 8.0 0.00 0.00 0.00 50 945.9
20260906155301 32 166 3.2 6.4 0.00 0.00 0.00 53 945.8
20260906155015 32 121 4.8 8.0 0.00 0.00 0.00 52 945.9
20260906154250 32 192 3.2 8.0 0.00 0.00 0.00 54 945.9
20260906153743 32 119 3.2 6.4 0.00 0.00 0.00 54 945.8
20260906153238 32 84 1.6 6.4 0.00 0.00 0.00 54 945.9
20260906152731 32 217 3.2 6.4 0.00 0.00 0.00 56 945.8
20260906152225 32 253 1.6 6.4 0.00 0.00 0.00 55 945.7
20260906151936 31 317 3.2 6.4 0.00 0.00 0.00 58 945.7
20260906151214 31 300 3.2 6.4 0.00 0.00 0.00 59 945.7
20260906150708 31 321 1.6 4.8 0.00 0.00 0.00 60 945.7
20260906150202 31 223 3.2 8.0 0.00 0.00 0.00 60 945.6
20260906145656 30 241 3.2 8.0 0.00 0.00 0.00 59 945.6
20260906145149 30 300 3.2 8.0 0.00 0.00 0.00 60 945.7
20260906144643 30 267 1.6 8.0 0.00 0.00 0.00 61 945.6
20260906144403 30 279 1.6 6.4 0.00 0.00 0.00 60 945.6
20260906143641 29 313 1.6 4.8 0.00 0.00 0.00 65 945.7
20260906143406 28 281 1.6 8.0 0.00 0.00 0.00 65 945.7
20260906142642 28 257 3.2 9.7 0.00 0.00 0.00 64 945.8
20260906142142 28 239 4.8 9.7 0.00 0.00 0.00 65 945.8
20260906141642 28 199 3.2 8.0 0.00 0.00 0.00 66 945.8
20260906141139 27 169 3.2 8.0 0.00 0.00 0.00 66 945.7
20260906140640 27 190 3.2 8.0 0.00 0.00 0.00 66 945.7
20260906140141 27 177 1.6 6.4 0.00 0.00 0.00 68 945.7
20260906135640 26 167 0.0 4.8 0.00 0.00 0.00 68 945.6
20260906134137 25 206 0.0 0.0 0.00 0.00 0.00 71 945.6
20260906133638 25 163 0.0 0.0 0.00 0.00 0.00 74 945.7
20260906132138 23 97 0.0 0.0 0.00 0.00 0.00 79 945.7
20260906131358 22 97 0.0 0.0 0.00 0.00 0.00 81 945.6
20260906130858 22 97 0.0 0.0 0.00 0.00 0.00 82 945.5
20260906130136 21 97 0.0 0.0 0.00 0.00 0.00 83 945.5
20260906125636 21 97 0.0 0.0 0.00 0.00 0.00 84 945.3
20260906125136 21 97 0.0 0.0 0.00 0.00 0.00 84 945.2
20260906123632 21 97 0.0 0.0 0.00 0.00 0.00 83 945.0
20260906123131 21 97 0.0 0.0 0.00 0.00 0.00 83 944.9
20260906122632 21 97 0.0 0.0 0.00 0.00 0.00 83 944.8
20260906122132 20 97 0.0 0.0 0.00 0.00 0.00 83 944.8
20260906121632 20 117 0.0 0.0 0.00 0.00 0.00 84 944.7
20260906121131 21 117 0.0 0.0 0.00 0.00 0.00 84 944.7
20260906120854 20 117 0.0 0.0 0.00 0.00 0.00 83 944.7
20260906120129 20 117 0.0 0.0 0.00 0.00 0.00 82 944.6
20260906115854 21 117 0.0 0.0 0.00 0.00 0.00 82 944.6
20260906115116 21 117 0.0 0.0 0.00 0.00 0.00 82 944.5
20260906114611 21 117 0.0 0.0 0.00 0.00 0.00 81 944.5
20260906114104 21 117 0.0 0.0 0.00 0.00 0.00 81 944.4
20260906113559 21 117 0.0 0.0 0.00 0.00 0.00 81 944.3
20260906113314 21 117 0.0 0.0 0.00 0.00 0.00 81 944.4
20260906112547 21 117 0.0 0.0 0.00 0.00 0.00 81 944.5
20260906112311 21 117 0.0 0.0 0.00 0.00 0.00 81 944.5
20260906111801 21 117 0.0 0.0 0.00 0.00 0.00 80 944.4
20260906111029 21 117 0.0 0.0 0.00 0.00 0.00 80 944.3
20260906110523 21 117 0.0 0.0 0.00 0.00 0.00 80 944.3
20260906110017 21 117 0.0 3.2 0.00 0.00 0.00 81 944.3
20260906105511 21 117 1.6 6.4 0.00 0.00 0.00 79 944.2
20260906105005 21 117 1.6 6.4 0.00 0.00 0.00 80 944.1
20260906104458 21 117 0.0 6.4 0.00 0.00 0.00 81 944.2
20260906103959 21 101 0.0 0.0 0.00 0.00 0.00 83 944.2
20260906103459 21 84 0.0 0.0 0.00 0.00 0.00 80 944.1
20260906103000 21 84 0.0 0.0 0.00 0.00 0.00 80 944.1
20260906095951 21 97 0.0 1.6 0.00 0.00 0.00 81 944.0
20260906095449 21 97 0.0 0.0 0.00 0.00 0.00 81 943.9
20260906094947 21 97 0.0 0.0 0.00 0.00 0.00 79 943.9
20260906094445 21 97 0.0 0.0 0.00 0.00 0.00 79 943.9
20260906093943 21 97 0.0 0.0 0.00 0.00 0.00 80 943.9
20260906093441 21 97 0.0 1.6 0.00 0.00 0.00 80 943.9
20260906092941 21 97 0.0 1.6 0.00 0.00 0.00 80 944.0
20260906092438 21 97 1.6 3.2 0.00 0.00 0.00 78 944.0
20260906091935 21 97 1.6 3.2 0.00 0.00 0.00 79 943.9
20260906091439 21 97 0.0 3.2 0.00 0.00 0.00 79 943.8
20260906085931 22 125 0.0 0.0 0.00 0.00 0.00 77 943.8
20260906085136 22 125 0.0 0.0 0.00 0.00 0.00 76 943.8
20260906084413 22 125 0.0 0.0 0.00 0.00 0.00 77 943.8
20260906084127 22 125 0.0 0.0 0.00 0.00 0.00 74 943.8
20260906083400 22 125 0.0 0.0 0.00 0.00 0.00 74 943.8
20260906082854 22 125 0.0 1.6 0.00 0.00 0.00 74 943.7
20260906081553 22 125 1.6 4.8 0.00 0.00 0.00 73 943.6
20260906080324 22 138 1.6 4.8 0.00 0.00 0.00 73 943.7
20260906075818 23 130 0.0 3.2 0.00 0.00 0.00 71 943.7
20260906075312 23 109 0.0 1.6 0.00 0.00 0.00 71 943.8
20260906074806 23 109 0.0 1.6 0.00 0.00 0.00 70 943.8
20260906074300 23 109 1.6 4.8 0.00 0.00 0.00 70 943.9
20260906073755 23 109 3.2 4.8 0.00 0.00 0.00 70 943.9
20260906073249 23 100 3.2 6.4 0.00 0.00 0.00 70 944.0
20260906072743 23 103 3.2 6.4 0.00 0.00 0.00 70 944.1
20260906072236 23 96 3.2 4.8 0.00 0.00 0.00 73 944.2
20260906071730 23 113 1.6 4.8 0.00 0.00 0.00 71 944.2
20260906071224 23 102 0.0 3.2 0.00 0.00 0.00 71 944.2
20260906070718 23 242 0.0 0.0 0.00 0.00 0.00 69 944.2
20260906070212 23 242 0.0 3.2 0.00 0.00 0.00 68 944.2
20260906065926 23 95 1.6 4.8 0.00 0.00 0.00 67 944.2
20260906065201 24 95 3.2 4.8 0.00 0.00 0.00 67 944.3
20260906064655 24 101 3.2 6.4 0.00 0.00 0.00 66 944.3
20260906064149 23 91 3.2 6.4 0.00 0.00 0.00 67 944.4
20260906063643 23 107 0.0 6.4 0.00 0.00 0.00 68 944.4
20260906063355 23 142 0.0 3.2 0.00 0.00 0.00 67 944.5
20260906062631 23 150 1.6 4.8 0.00 0.00 0.00 67 944.5
20260906062124 23 148 1.6 6.4 0.00 0.00 0.00 67 944.6
20260906061618 24 116 1.6 6.4 0.00 0.00 0.00 68 944.6
20260906061112 24 104 0.0 0.0 0.00 0.00 0.00 68 944.6
20260906060613 24 104 0.0 0.0 0.00 0.00 0.00 65 944.6
20260906060113 25 104 0.0 0.0 0.00 0.00 0.00 64 944.6
20260906055612 25 104 0.0 0.0 0.00 0.00 0.00 65 944.6
20260906055111 25 104 1.6 4.8 0.00 0.00 0.00 62 944.6
20260906054609 25 104 3.2 4.8 0.00 0.00 0.00 61 944.6
20260906054109 25 108 3.2 4.8 0.00 0.00 0.00 60 944.5
20260906053608 26 112 3.2 6.4 0.00 0.00 0.00 60 944.5
20260906053109 26 110 4.8 6.4 0.00 0.00 0.00 58 944.5
20260906052609 26 98 4.8 6.4 0.00 0.00 0.00 58 944.4
20260906052108 26 111 4.8 6.4 0.00 0.00 0.00 58 944.4
20260906051831 26 102 4.8 6.4 0.00 0.00 0.00 59 944.4
20260906051108 26 82 4.8 6.4 0.00 0.00 0.00 59 944.4
20260906050609 25 105 4.8 6.4 0.00 0.00 0.00 60 944.4
20260906050109 26 118 4.8 6.4 0.00 0.00 0.00 62 944.4
20260906045831 26 141 3.2 4.8 0.00 0.00 0.00 60 944.4
20260906045331 26 136 3.2 4.8 0.00 0.00 0.00 62 944.4
20260906044607 26 134 3.2 4.8 0.00 0.00 0.00 62 944.4
20260906044108 26 135 3.2 6.4 0.00 0.00 0.00 58 944.4
20260906043608 26 147 3.2 6.4 0.00 0.00 0.00 56 944.5
20260906043107 26 128 3.2 6.4 0.00 0.00 0.00 57 944.5
20260906042607 27 134 3.2 6.4 0.00 0.00 0.00 57 944.4
20260906042334 27 119 3.2 6.4 0.00 0.00 0.00 58 944.4
20260906041608 27 105 3.2 6.4 0.00 0.00 0.00 56 944.4
20260906041108 27 116 3.2 6.4 0.00 0.00 0.00 57 944.4
20260906040607 27 107 4.8 9.7 0.00 0.00 0.00 55 944.3
20260906040331 28 94 4.8 9.7 0.00 0.00 0.00 53 944.4
20260906035608 28 104 4.8 9.7 0.00 0.00 0.00 52 944.3
20260906035108 28 105 4.8 9.7 0.00 0.00 0.00 52 944.3
20260906034607 28 112 4.8 9.7 0.00 0.00 0.00 52 944.2
20260906034108 28 101 4.8 6.4 0.00 0.00 0.00 51 944.2
20260906033608 28 78 4.8 6.4 0.00 0.00 0.00 51 944.2
20260906033107 28 115 4.8 9.7 0.00 0.00 0.00 52 944.1
20260906032601 28 108 4.8 9.7 0.00 0.00 0.00 50 944.0
20260906032321 28 110 4.8 9.7 0.00 0.00 0.00 50 943.9
20260906031548 28 97 4.8 6.4 0.00 0.00 0.00 49 943.8
20260906031043 29 109 4.8 9.7 0.00 0.00 0.00 50 943.8
20260906030806 29 100 4.8 9.7 0.00 0.00 0.00 48 943.7
20260906030031 29 101 4.8 11.3 0.00 0.00 0.00 48 943.6
20260906025523 30 86 4.8 11.3 0.00 0.00 0.00 47 943.5
20260906025241 30 113 6.4 11.3 0.00 0.00 0.00 46 943.5
20260906024511 30 85 6.4 12.9 0.00 0.00 0.00 46 943.4
20260906024005 30 94 6.4 12.9 0.00 0.00 0.00 46 943.4
20260906023459 30 92 6.4 11.3 0.00 0.00 0.00 46 943.2
20260906023219 30 98 6.4 9.7 0.00 0.00 0.00 46 943.2
20260906022447 31 84 6.4 12.9 0.00 0.00 0.00 45 943.2
20260906021941 31 93 8.0 12.9 0.00 0.00 0.00 44 943.0
20260906021652 31 102 8.0 14.5 0.00 0.00 0.00 44 943.0
20260906020928 31 103 8.0 14.5 0.00 0.00 0.00 43 942.9
20260906020648 31 117 8.0 12.9 0.00 0.00 0.00 43 942.9
20260906015917 32 102 9.7 14.5 0.00 0.00 0.00 42 942.8
20260906015411 32 110 9.7 14.5 0.00 0.00 0.00 42 942.7
20260906014904 32 118 9.7 14.5 0.00 0.00 0.00 41 942.7
20260906014625 32 155 9.7 16.1 0.00 0.00 0.00 41 942.7
20260906013853 32 106 9.7 16.1 0.00 0.00 0.00 41 942.5
20260906013347 32 120 9.7 17.7 0.00 0.00 0.00 40 942.5
20260906012841 32 82 9.7 17.7 0.00 0.00 0.00 40 942.4
20260906012334 32 108 9.7 17.7 0.00 0.00 0.00 40 942.3
20260906011828 33 103 11.3 20.9 0.00 0.00 0.00 40 942.2
20260906011323 33 109 12.9 22.5 0.00 0.00 0.00 39 942.2
20260906010817 33 110 12.9 22.5 0.00 0.00 0.00 39 942.1
20260906010311 33 153 11.3 19.3 0.00 0.00 0.00 38 942.1
20260906005804 33 90 12.9 22.5 0.00 0.00 0.00 38 942.0
20260906005259 33 92 14.5 22.5 0.00 0.00 0.00 38 941.9
20260906005012 33 103 16.1 24.1 0.00 0.00 0.00 38 942.0
20260906004247 34 102 16.1 29.0 0.00 0.00 0.00 38 941.9
20260906003741 34 125 16.1 29.0 0.00 0.00 0.00 38 941.9
20260906003234 34 111 14.5 29.0 0.00 0.00 0.00 38 941.9
20260906002728 35 88 12.9 22.5 0.00 0.00 0.00 38 941.9
20260906002222 35 138 12.9 22.5 0.00 0.00 0.00 38 941.9
20260906001948 35 112 14.5 24.1 0.00 0.00 0.00 38 941.8
20260906000704 35 112 14.5 24.1 0.00 0.00 0.00 38 941.8
20260906000158 35 106 14.5 24.1 0.00 0.00 0.00 38 941.7
20260905235652 35 120 14.5 24.1 0.00 0.00 0.00 38 941.7
20260905235146 36 92 14.5 24.1 0.00 0.00 0.00 37 941.7
20260905234905 36 116 14.5 24.1 0.00 0.00 0.00 37 941.7
20260905234135 36 73 14.5 24.1 0.00 0.00 0.00 37 941.6
20260905233853 36 102 16.1 25.7 0.00 0.00 0.00 37 941.5
20260905233123 36 134 16.1 25.7 0.00 0.00 0.00 37 941.4
20260905232617 36 98 14.5 25.7 0.00 0.00 0.00 37 941.4
20260905232110 36 101 12.9 22.5 0.00 0.00 0.00 36 941.3
20260905231604 36 121 11.3 19.3 0.00 0.00 0.00 36 941.3
20260905231058 36 111 11.3 22.5 0.00 0.00 0.00 36 941.3
20260905230553 36 172 11.3 24.1 0.00 0.00 0.00 36 941.3
20260905230047 36 112 9.7 24.1 0.00 0.00 0.00 38 941.3